Flag for Slovenia Weather past 2 weeks in Celje, Slovenia

Now
84 °F

Warm.


Feels Like: 90 °F
Forecast: 59 / 86 °F
Wind: 2 mph from South

Location: Celje

Current Time: Aug 30, 2015 at 8:03:36 PM

Latest Report: Aug 30, 2015 at 7:00 PM


Visibility: N/A

Pressure: 30.06 "Hg

Humidity: 64%

Dew point: 71 °F

Location of CeljeLocation

Historic Weather in Celje — Graph

°F

Celje temperature yesterday

Maximum temperature yesterday: 90 °F (at 4:00 PM)
Minimum temperature yesterday: 57 °F (at 7:00 AM)
Average temperature yesterday: 72 °F

Past Weeks' High & Low Weather Summary

 TemperatureHumidityPressure
High90 °F (Aug 29, 4:00 PM)99% (Aug 23, 7:00 AM)30.23 "Hg (Aug 23, 7:00 AM)
Low51 °F (Aug 23, 4:00 AM)39% (Aug 29, 5:00 PM)29.71 "Hg (Aug 16, 5:00 PM)
Average66 °F81%30.02 "Hg
* Reported Aug 15 7:00 PM — Aug 30 7:00 PM, Celje, Weather by CustomWeather, © 2015

Note: Actual official high and low records may vary slightly from our data, if they occured in-between our weather recording intervals... More about our weather records

Advertising

Celje weather history for previous 24 hours

 ConditionsComfort  
Time TempWeatherWind HumidityBarometerVisibility
7:00 PM
Sun, Aug 30
84 °FWarm.2 mph64%30.06 "HgN/A
5:00 PM89 °FHot.2 mph55%30.07 "HgN/A
3:00 PM89 °FPassing clouds.3 mph50%30.09 "Hg19 mi
2:00 PM88 °FPassing clouds.2 mph53%30.11 "Hg19 mi
1:00 PM87 °FWarm.1 mph53%30.12 "HgN/A
12:00 PM82 °FWarm.1 mph58%30.15 "HgN/A
11:00 AM78 °FWarm.1 mph64%30.17 "HgN/A
10:00 AM73 °FMild.No wind74%30.18 "HgN/A
9:00 AM68 °FMild.1 mph87%30.19 "HgN/A
8:00 AM61 °FFog.1 mph99%30.20 "Hg2 mi
7:00 AM56 °FFog.1 mph99%30.21 "Hg1 mi
6:00 AM56 °FCool.1 mph99%30.20 "HgN/A
5:00 AM57 °FCool.No wind98%30.20 "HgN/A
4:00 AM58 °FCool.No wind98%30.20 "HgN/A
3:00 AM59 °FCool.1 mph98%30.20 "HgN/A
2:00 AM61 °FCool.1 mph98%30.21 "HgN/A
1:00 AM61 °FCool.No wind97%30.22 "HgN/A
12:00 AM64 °FMild.No wind98%30.22 "HgN/A
11:00 PM
Sat, Aug 29
65 °FMild.1 mph97%30.21 "HgN/A
10:00 PM65 °FMild.No wind94%30.20 "HgN/A
9:00 PM68 °FMild.No wind91%30.18 "HgN/A
8:00 PM72 °FPassing clouds.1 mph81%30.16 "Hg31 mi
Weather by CustomWeather, © 2015

See weather overviewHow to use our weather pages